Kezdőlap
METAR-TAF:

METAR-TAF

Repülőterek :

Platteville, Wisconsin, Amerikai Egyesült Államok

földrajzi szélesség: 42-41-22N, földrajzi hosszúság: 090-26-40W, magasság: 312 m

Jelenlegi meteorológiai megfigyelések

A jelentés 24 perccel ezelõtt készült, 15:35 UTC
Keleti szél 4 kt
Hőmérséklet 25°C
Páratartalom 74%
Légköri nyomás 1022 hPa
Látótávolság: 16.1 km
Derült ég

METAR: KPVB 291535Z AUTO 09004KT 10SM CLR 25/20 A3018 RMK AO1 T02480204

Idő: 10:59 (15:59 UTC)


TAF: hiányzik

Meteorológiai megfigyelések és előrejelzések több, mint 4000 repülőtéren (METAR és TAF jelentéseket).

A térképen piros és sárga pontok jelzik az elérhető meteorológiai állomásokat.

Mozgassa az egeret a pont fölött, hogy megjelenjen az állomás neve.

Azután kattintson az időjárási megfigyelések és előrejelzések megtekintéséhez.

A térkép megváltoztatása: kattintson a fekete keresztel jelölt zöld gombra ráközelítéshez, a vonallal jelölt zöld gombra távolításhoz, vagy a zöld nyilakra a szomszédos térképek eléréséhez.


METAR-TAF: